Regional Weather Roundup
Issued by NWS

Home | Current Version | Previous Version | Text Only | Print | Product List | Glossary On
Versions: 1 2 3 4 5 6 7 8 9 10 11 12 13 14 15 16 17 18 19 20 21 22 23 24 25 26
000
ASUS45 KCYS 271910
RWRWY

WYOMING REGIONAL WEATHER ROUNDUP
NATIONAL WEATHER SERVICE CHEYENNE WY
100 PM MDT THU JUL 27 2017

NOTE:  "FAIR" INDICATES FEW OR NO CLOUDS BELOW 12,000 FEET
WITH NO SIGNIFICANT WEATHER AND/OR OBSTRUCTIONS TO VISIBILITY.

WYZ001-272000-
YELLOWSTONE NATIONAL PARK

CITY           SKY/WX    TMP DP  RH WIND       PRES   REMARKS
LK YELLOWSTONE   N/A     58  57  97 N3        30.39S
W YELLOWSTONE  NOT AVBL

$$
WYZ002>013-054>058-071-098>099-272000-
NORTHERN WYOMING

CITY           SKY/WX    TMP DP  RH WIND       PRES   REMARKS
JACKSON        PTSUNNY   66  54  63 SW6       30.31F
CODY           FAIR      83  44  25 CALM      30.14F
GREYBULL       FAIR      90  45  21 VRB5      30.05F
WORLAND        FAIR      87  50  27 N5        30.08F
SHERIDAN       FAIR      84  54  35 N7        30.08F
BUFFALO        FAIR      82  55  39 NW15G21   30.13F
GILLETTE       FAIR      89  56  32 S13G21    30.05F
HULETT         MOCLDY    86  59  39 SW17G28   30.08F
NEWCASTLE      FAIR      81  57  44 SE18G26   30.10F

$$
WYZ014>020-022>026-101>103-272000-
CENTRAL WYOMING

CITY           SKY/WX    TMP DP  RH WIND       PRES   REMARKS
BIG PINEY      PTSUNNY   73  46  38 W8        30.32F
PINEDALE       MOCLDY    73  41  31 N7        30.33F
DUBOIS         CLOUDY    68  45  42 SW14G23   30.31S
LANDER         FAIR      83  46  27 E6        30.18F
RIVERTON       FAIR      84  41  21 NW6       30.17F
CASPER         TSTM      74  62  66 S9        30.15F
DOUGLAS        FAIR      84  56  38 CALM      30.14F

$$
WYZ021-027>030-104>119-272000-
SOUTHERN WYOMING

CITY           SKY/WX    TMP DP  RH WIND       PRES   REMARKS
EVANSTON       FAIR      78  47  33 W20G28    30.34F
KEMMERER         N/A     75  45  33 W15G22    30.35F
FORT BRIDGER   FAIR      81  41  24 W15G23    30.35F
ROCK SPRINGS   FAIR      80  43  26 SW10G21   30.30F
RAWLINS        FAIR      80  48  32 W15G22    30.29F
SARATOGA       MOCLDY    81  45  28 W7G16     30.31S
LARAMIE        FAIR      76  50  40 N7        30.31F
CHEYENNE       FAIR      80  57  45 S14       30.26F
TORRINGTON     PTSUNNY   84  62  47 S14G22    30.11F
PINE BLUFFS    FAIR      81  55  41 S14G20    30.21F

$$




USA.gov is the U.S. government's official web portal to all federal, state and local government web resources and services.